weather.gov     
National Weather Service

Terminal Aerodrome Forecast
NWS Homepage
This page is being discontinued on March 12, 2014.
The same data is available at this site. Please update your bookmarks.
Thank you, and we apologize for the inconvenience.
Please send an email to SR-SRH.Webmaster@noaa.gov with any concerns.


Current Version
Previous Version:    01  02  03  04  05  06  07  08  09  10  11  12  13  14  
[Printable]
721
FTUS41 KBTV 252320
TAFBTV
TAF
KBTV 252320Z 2600/2624 19008KT P6SM -SHRA OVC035
     FM260100 21008KT P6SM OVC080
     FM260600 27008KT P6SM OVC035
     FM261200 28012G20KT P6SM VCSH OVC035=


721
FTUS41 KBTV 252320
TAFBTV
TAF
KBTV 252320Z 2600/2624 19008KT P6SM -SHRA OVC035
     FM260100 21008KT P6SM OVC080
     FM260600 27008KT P6SM OVC035
     FM261200 28012G20KT P6SM VCSH OVC035=




U.S. Dept. of Commerce
NOAA National Weather Service
1325 East West Highway
Silver Spring, MD 20910
E-mail: w-nws.webmaster@noaa.gov
Page last modified: May 16, 2007
NATIONAL WEATHER SERVICE: for Safety, for Work, for Fun - FOR LIFE